www.pogodaiklimat.ru

Погода и климат >> Архив погоды >> Южная Африка >> Остров Гоф


ПОГОДА на Острове Гоф

  • Прогноз погоды на Острове Гоф
  • Монитор погоды на Острове Гоф

АРХИВ ПОГОДЫ на Острове Гоф

Время (UTC), дата Ветер
(напр.,м/с)
 
Видим.   Явления Облачность Т
(С)
Тd
(С)
f
(%)
Тe
(С)
Тes
(С)
Комфортность P
(гПа)
Po
(гПа)
Тmin
(С)
Tmax
(С)
R
(мм)
R24
(мм)
S
(см)
00 11.06 ЮЗ 9 20 км слаб. ливневой дождь 9/9 600 м
[Cu Sc]
+8.6 +4.8 77 +4 +4 1012.0 1005.4 +7.8 +13.3 4
03 11.06 ЮЗ 9 20 км слаб. ливневой дождь 9/9 600 м
[Cu Sc]
+8.9 +3.7 70 +4 +4 1014.0 1007.4 +7.8 +13.3
06 11.06 ЮЗ 11 20 км 8/8 600 м
[Cu Sc]
+9.5 +3.9 68 +5 +5 1015.8 1009.2 +7.8 5
12 11.06 ЮЗ 8 10 км осадки на расстоянии {ливн. осадки} 9/9 300 м
[Cu Sc]
+12.4 +10.3 87 +9 +9 1060.8 1011.2 +7.8 +12.5 2
15 11.06 ЮЗ 8 20 км 6/5 600 м
[Cu Sc Ac As Ci fib]
+12.2 +9.0 81 +9 +9 1018.6 1012.1 +12.0 +12.6
18 11.06 ЮЗ 7 20 км 9/9 600 м
[Cu Sc]
+12.0 +9.5 85 +9 +9 1060.6 1013.5 +11.9 +12.6 2
21 11.06 З 7 20 км 9/9 600 м
[Cu Sc]
+12.7 +9.9 83 +10 +10 1021.1 1014.6 +11.9 +12.8
00 12.06 З 13 20 км 9/9 600 м
[Cu Sc]
+13.3 +7.7 69 +10 +10 1019.9 1013.4 +11.8 +13.3 2
03 12.06 З 7 20 км 8/8 600 м
[Cu Sc]
+13.4 +8.9 74 +11 +11 1017.6 1011.1 +11.9 +13.7
06 12.06 З 9 20 км слаб. морось 9/9 300 м
[St]
+12.8 +8.5 75 +10 +10 1015.0 1008.5 +11.9 2
09 12.06 СЗ 9 4000 м слаб. дождь 10/10 100 м
[Cu Sc]
+13.3 +10.6 84 +10 +10 1015.0 1008.5 +11.9 +13.4
12 12.06 З 5 10 км слаб. дождь 10/4 300 м
[St As op]
+12.5 +10.7 89 +10 +10 1016.6 1010.1 6
15 12.06 ЮЗ 9 10 км мгла {дождь} 6/3 600 м
[Cu Sc Ci]
+11.2 +6.9 75 +8 +8 1016.3 1009.8 +11.1 +13.9
18 12.06 ЮЗ 8 20 км 8/8 600 м
[Cu Sc]
+10.7 +6.0 73 +7 +7 1060.6 1011.0 +10.5 +13.9 7
21 12.06 ЮЗ 6 4000 м слаб. дождь 10/10 600 м
[Cu Sc]
+10.8 +7.1 78 +8 +8 1018.4 1011.9 +10.4 +13.9
00 13.06 ЮЗ 7 20 км 8/8 600 м
[Cu Sc]
+9.7 +6.7 82 +6 +6 1018.6 1012.0 +9.1 +13.9 7
03 13.06 З 6 20 км 5/4 600 м
[Sc Ci fib]
+10.4 +5.6 72 +7 +7 1017.5 1011.0 +9.1 +13.9
06 13.06 З 6 20 км 4/4 600 м
[Cu Sc]
+10.4 +5.4 71 +7 +7 1016.6 1010.1 +9.1 7
09 13.06 З 6 20 км 9/9 300 м
[Cu Sc]
+11.0 +5.9 71 +8 +8 1016.9 1010.4 +9.1 +11.0
12 13.06 З 7 20 км 9/6 600 м
[Cu Sc Ci]
+12.1 +6.8 70 +9 +10 1080.2 1010.1 +9.1 +12.1 0.2
15 13.06 З 7 20 км 9/9 600 м
[Cu Sc]
+11.9 +7.0 72 +9 +9 1015.4 1008.9 +11.7 +12.2
18 13.06 З 4 20 км 9/3 600 м
[Cu Sc As trans]
+10.7 +8.6 87 +8 +8 1080.6 1009.0 +9.6 +12.2 1
21 13.06 З 6 4000 м слаб. дождь 10/1 600 м
[Cu Sc As trans]
+10.1 +7.8 86 +7 +7 1015.3 1008.8 +9.5 +12.2
00 14.06 ЮЗ 4 10 км слаб. ливневой дождь 9/9 600 м
[Cu Sc]
+10.1 +8.5 90 +7 +7 1014.4 1007.9 +9.5 +12.2 11
03 14.06 ЮЗ 7 10 км в посл. час ливневой дождь 9/9 600 м
[Cu Sc]
+9.6 +7.7 88 +6 +6 1013.9 1007.4 +9.5 +12.2
06 14.06 ЮЗ 8 20 км слаб. ливневой дождь 9/9 600 м
[Cu Sc]
+9.3 +6.9 85 +5 +5 1013.3 1006.8 +9.3 17
09 14.06 ЮЗ 8 20 км 8/6 600 м
[Cu Sc Ci fib]
+8.9 +5.4 79 +5 +5 1014.5 1007.9 +8.9 +9.5
12 14.06 ЮЗ 8 20 км 6/6 600 м
[Cu Sc]
+9.2 +4.0 70 +5 +5 1060.4 1009.2 +8.5 +9.5
15 14.06 Ю 6 20 км 8/8 600 м
[Cu Sc Ci fib]
+8.2 +3.2 71 +4 +5 1015.6 1009.0 +8.0 +9.7
18 14.06 ЮЗ 3 20 км 9/9 600 м
[Cu Sc]
+6.7 +2.2 73 +4 +4 1080.6 1009.7 +6.7 +9.7
21 14.06 ЮЗ 3 20 км 8/8 600 м
[Cu Sc]
+5.6 +2.2 79 +3 +3 1017.1 1010.4 +5.5 +9.7
03 15.06 З 3 20 км в посл. час дождь 9/9 1000 м
[Sc]
+4.2 +2.3 87 +1 +1 1015.8 1009.1 +3.6 +9.6
06 15.06 СЗ 3 10 км слаб. ливневой дождь {морось} 10/10 300 м
[Cu Sc]
+5.3 +3.4 88 +2 +2 1013.6 1007.0 +3.6 1
09 15.06 ЮВ 4 20 км слаб. морось 9/9 300 м
[St]
+6.1 +2.3 77 +2 +2 1013.2 1006.6 +3.6 +6.3
12 15.06 Ю 4 20 км в посл. час ливневой дождь 9/9 600 м
[Cu Sc]
+7.2 +1.0 65 +4 +4 1080.6 1006.3 +3.6 +7.2
15 15.06 Ю 5 20 км 6/6 600 м
[Cu Sc]
+6.0 +3.3 83 +2 +2 1011.3 1004.7 +6.0 +7.6
18 15.06 ЮЗ 6 20 км 8/8 600 м
[Cu Sc]
+6.0 +2.6 79 +1 +1 1080.6 1005.3 +5.7 +7.6 0.2
21 15.06 ЮЗ 4 20 км 4/4 600 м
[Cu Sc]
+6.5 +2.7 77 +3 +3 1012.5 1005.9 +5.7 +7.6
00 16.06 СЗ 3 20 км 8/6 600 м
[Cu Sc Ac As]
+7.4 +2.7 72 +5 +5 1011.9 1005.3 +5.6 +7.6 0.2
03 16.06 З 4 20 км в посл. час ливневой дождь 8/8 600 м
[Cu Sc]
+7.1 +3.9 80 +4 +4 1009.6 1003.0 +5.7 +7.8
06 16.06 ЮЗ 8 20 км в посл. час ливневой дождь 8/8 600 м
[Cu Sc]
+6.8 +4.3 84 +2 +2 1008.4 1001.8 +5.7 5
09 16.06 ЮЗ 7 20 км 5/5 600 м
[Cu Sc]
+6.9 +3.5 79 +2 +2 1009.4 1002.8 +5.7 +7.3
12 16.06 ЮЗ 5 20 км 6/6 600 м
[Sc]
+8.8 1008.8 1002.3 +5.7 +8.9 0.2
15 16.06 З 2 20 км 6/6 600 м
[Cu Sc]
+9.4 +2.0 60 +8 +9 1007.3 1000.8 +8.1 +9.8
18 16.06 СЗ 2 20 км 6/6 600 м
[Cu Sc]
+7.5 +2.2 69 +6 +6 1060.6 998.7 +6.5 +9.8 0.2
21 16.06 С 11 20 км 9/9 600 м
[Cu Sc]
+10.0 +5.4 73 +5 +5 999.7 993.3 +6.5 +10.1
00 17.06 С 13 20 км в посл. час ливневой дождь 10/10 600 м
[Cu Sc]
+10.7 +8.3 85 +6 +6 992.4 986.0 +6.5 +10.8 2
03 17.06 С 17 4000 м дождь {ливн. осадки} 10/10 300 м
[Cu Sc]
+11.0 +9.6 91 +6 +6 983.9 977.6 +6.5 +11.4
06 17.06 СЗ 9 20 км {дождь} 6/6 600 м
[Cu Sc]
+11.7 +8.2 79 +8 +8 978.2 971.9 +6.5 15
09 17.06 З 9 20 км в посл. час ливневой дождь 6/5 600 м
[Cu Sc Cc]
+11.6 +7.1 74 +8 +8 977.9 971.6 +6.5 +12.1
12 17.06 ЮЗ 9 10 км слаб. ливневой дождь 9/9 600 м
[Cu Sc]
+9.6 1060.4 +6.5 +12.0 3
15 17.06 ЮЗ 9 20 км 8/8 600 м
[Cu Sc]
+9.2 +4.0 70 +5 +5 984.2 977.8 +8.3 +12.0
18 17.06 З 7 20 км 6/6 600 м
[Cu Sc]
+8.0 +3.0 71 +4 +4 1060.4 979.9 +6.8 +12.1 4
21 17.06 СЗ 5 20 км в посл. час ливневой дождь 8/8 600 м
[Cu Sc]
+8.4 +3.4 71 +5 +5 986.3 979.9 +6.8 +12.1

 

Местоположение метеостанции Остров Гоф (Южная Африка): широта -40.35 долгота -9.88 высота над уровнем моря 54 м.

В архиве по умолчанию представлена погода на Острове Гоф за последнюю неделю. Архивные данные за месяц целиком и за предыдущие месяцы, начиная с января 2011 года, Вы можете получить, выбрав интересующий диапазон дат из раскрывающегося списка и нажав кнопку "Ввод!".


*Определитесь, кто Вы:
робот инопланетянин человек

Внимание! Время в таблицах - всемирное. Для получения местного времени необходимо прибавить поправку, которая равна 2 ч.

Смотрите также архив погоды в соседних городах и на ближайших метеорологических станциях:

Погода в Триндади (Эспириту-Санту, Бразилия) (2876 км)

Пояснения к столбцам:

Ветер - указаны скорость ветра в м/с - средняя за 10 мин, порывы в срок и между сроками (в фигурных скобках) и направление, откуда дует ветер: С - северный, СВ - северо-восточный, В - восточный, ЮВ - юго-восточный, Ю - южный, ЮЗ - юго-западный, З - западный, СЗ - северо-западный.
Видимость - горизонтальная дальность видимости в метрах или километрах. При видимости от 1 до 10 км при отсутствии осадков обычно наблюдается дымка, при ухудшении видимости до 1 км и менее - туман. В сухую погоду видимость может ухудшаться дымом, пылью или мглою.
Явления - указаны атмосферные явления, наблюдавшиеся в срок или в последний час перед сроком; фигурными скобками обозначены явления, наблюдавшиеся между сроками (за 1-3 часа до срока); квадратными скобками обозначены град или гололедные отложения с указанием их диаметра в мм.
Облачность - указаны через наклонную черту общая и нижняя облачность в баллах и высота нижней границы облаков в метрах; квадратными скобками обозначены формы облаков: Ci - перистые, Cs - перисто-слоистые, Cc - перисто-кучевые, Ac - высококучевые, As - высокослоистые, Sc - слоисто-кучевые, Ns - слоисто-дождевые, Cu - кучевые, Cb - кучево-дождевые. Подробнее классификацию облаков см. в Атласе облаков (PDF).
T - Температура воздуха - температура, измеренная на высоте 2 м над землей.
Td - Температура точки росы - температура, при понижении до которой содержащийся в воздухе водяной пар достигнет насыщения.
f - Относительная влажность воздуха - влажноcть воздуха, измеренная на высоте 2 м над землей.
Te - Эффективная температура - температура, которую ощущает одетый по сезону человек в тени. Характеристика душности погоды. При расчете учитывается влияние влажности воздуха и скорости ветра на теплоощущения человека.
Tes - Эффективная температура на солнце - температура, которую ощущает человек, с поправкой на солнечный нагрев. Характеристика знойности погоды. Зависит от высоты солнца над горизонтом, облачности и скорости ветра. Ночью, в пасмурную погоду, а также при ветре 12 м/с и более поправка равна нулю.
P - Атмосферное давление - приведенное к уровню моря атмосферное давление.
Po - Атмосферное давление - измеренное на уровне метеостанции атмосферное давление.
Tmin - Минимальная температура - минимум температуры воздуха на высоте 2 м над землей.
Tmax - Максимальная температура - максимум температуры воздуха на высоте 2 м над землей.
R - Количество осадков - Количество выпавших осадков за период времени, мм. При наведении курсора мыши на число - период времени, за который выпало указанное количество осадков.
R24 - Количество осадков - Количество выпавших осадков за 24 часа, мм.
S - Снежный покров - Высота снежного покрова, см. При наведении курсора мыши на число - состояние снежного покрова и степень покрытия местности в баллах.